Hourly Weather Kozmodemyanovka

Today, 29 October, Thursday

Time Temperature Precipitation Wind Pressure Humidity
00:00 +1°C° 0 mm 4 mps 758 mmHg 58%
01:00 +1°C° 0 mm 3 mps 758 mmHg 60%
02:00 +1°C° 0 mm 3 mps 758 mmHg 62%
03:00 0°C° 0 mm 3 mps 758 mmHg 66%
04:00 0°C° 0 mm 3 mps 758 mmHg 67%
05:00 0°C° 0 mm 3 mps 758 mmHg 68%
06:00 0°C° 0 mm 3 mps 758 mmHg 68%
07:00 0°C° 0 mm 3 mps 757 mmHg 66%
08:00 +1°C° 0 mm 3 mps 757 mmHg 65%
09:00 +1°C° 0 mm 4 mps 757 mmHg 62%
10:00 +3°C° 0 mm 4 mps 757 mmHg 58%
11:00 +4°C° 0 mm 4 mps 757 mmHg 53%
12:00 +5°C° 0 mm 4 mps 757 mmHg 49%
13:00 +6°C° 0 mm 4 mps 756 mmHg 48%
14:00 +6°C° 0 mm 4 mps 756 mmHg 47%
15:00 +7°C° 0 mm 4 mps 755 mmHg 45%
16:00 +7°C° 0 mm 3 mps 755 mmHg 50%
17:00 +5°C° 0 mm 3 mps 755 mmHg 54%
18:00 +4°C° 0 mm 3 mps 754 mmHg 59%
19:00 +4°C° 0 mm 3 mps 754 mmHg 59%
20:00 +4°C° 0 mm 3 mps 754 mmHg 60%
21:00 +4°C° 0 mm 4 mps 754 mmHg 60%
22:00 +4°C° 0 mm 3 mps 753 mmHg 61%
23:00 +4°C° 0 mm 3 mps 753 mmHg 61%

Tomorrow, 30 October, Friday

Time Temperature Precipitation Wind Pressure Humidity
00:00 +4°C° 0 mm 3 mps 753 mmHg 62%
01:00 +4°C° 0 mm 3 mps 752 mmHg 63%
02:00 +4°C° 0 mm 3 mps 752 mmHg 64%
03:00 +5°C° 0 mm 3 mps 752 mmHg 65%
04:00 +5°C° 0 mm 3 mps 752 mmHg 66%
05:00 +5°C° 0 mm 3 mps 751 mmHg 68%
06:00 +5°C° 0 mm 3 mps 751 mmHg 69%
07:00 +5°C° 0 mm 4 mps 751 mmHg 69%
08:00 +5°C° 0 mm 4 mps 751 mmHg 70%
09:00 +6°C° 0 mm 4 mps 751 mmHg 70%
10:00 +6°C° 0 mm 4 mps 751 mmHg 72%
11:00 +7°C° 0 mm 3 mps 751 mmHg 73%
12:00 +7°C° 0 mm 3 mps 750 mmHg 74%
13:00 +7°C° 0 mm 3 mps 750 mmHg 75%
14:00 +7°C° 0 mm 3 mps 750 mmHg 76%
15:00 +7°C° 0 mm 3 mps 750 mmHg 77%
16:00 +7°C° 0.1 mm 3 mps 750 mmHg 80%
17:00 +7°C° 0.1 mm 3 mps 749 mmHg 82%
18:00 +7°C° 0.1 mm 2 mps 749 mmHg 85%
19:00 +7°C° 0.6 mm 2 mps 749 mmHg 88%
20:00 +7°C° 0.6 mm 2 mps 749 mmHg 91%
21:00 +7°C° 0.6 mm 2 mps 749 mmHg 95%
22:00 +7°C° 0.9 mm 2 mps 749 mmHg 95%
23:00 +7°C° 0.9 mm 2 mps 749 mmHg 96%

Day after tomorrow, 31 October, Saturday

Time Temperature Precipitation Wind Pressure Humidity
00:00 +7°C° 0.9 mm 2 mps 748 mmHg 96%
01:00 +8°C° 0.1 mm 1 mps 748 mmHg 96%
02:00 +8°C° 0.1 mm 1 mps 748 mmHg 96%
03:00 +8°C° 0.1 mm 1 mps 748 mmHg 96%
04:00 +8°C° 0 mm 1 mps 748 mmHg 96%
05:00 +8°C° 0 mm 1 mps 748 mmHg 96%
06:00 +8°C° 0 mm 1 mps 748 mmHg 96%
07:00 +8°C° 0 mm 1 mps 748 mmHg 95%
08:00 +8°C° 0 mm 1 mps 748 mmHg 95%
09:00 +8°C° 0 mm 1 mps 748 mmHg 94%
10:00 +8°C° 0 mm 2 mps 748 mmHg 92%
11:00 +8°C° 0 mm 2 mps 749 mmHg 90%
12:00 +8°C° 0 mm 2 mps 749 mmHg 89%
13:00 +8°C° 0 mm 2 mps 749 mmHg 88%
14:00 +9°C° 0 mm 2 mps 749 mmHg 87%
15:00 +9°C° 0 mm 2 mps 750 mmHg 86%
16:00 +8°C° 0 mm 3 mps 750 mmHg 88%
17:00 +8°C° 0 mm 3 mps 750 mmHg 89%
18:00 +8°C° 0 mm 3 mps 750 mmHg 90%
19:00 +8°C° 0 mm 3 mps 751 mmHg 90%
20:00 +8°C° 0 mm 3 mps 751 mmHg 90%
21:00 +7°C° 0 mm 4 mps 752 mmHg 90%
22:00 +7°C° 0 mm 4 mps 752 mmHg 90%
23:00 +7°C° 0 mm 4 mps 752 mmHg 89%

1 November, Sunday

Time Temperature Precipitation Wind Pressure Humidity
00:00 +7°C° 0 mm 4 mps 752 mmHg 89%
01:00 +6°C° 0 mm 4 mps 752 mmHg 89%
02:00 +6°C° 0 mm 4 mps 752 mmHg 89%
03:00 +6°C° 0 mm 5 mps 752 mmHg 89%
04:00 +6°C° 0.2 mm 5 mps 752 mmHg 89%
05:00 +6°C° 0.2 mm 5 mps 752 mmHg 90%
06:00 +6°C° 0.2 mm 5 mps 752 mmHg 90%
07:00 +6°C° 0.3 mm 5 mps 753 mmHg 90%
08:00 +6°C° 0.3 mm 5 mps 753 mmHg 90%
09:00 +6°C° 0.3 mm 5 mps 753 mmHg 90%
10:00 +6°C° 0.4 mm 5 mps 753 mmHg 90%
11:00 +6°C° 0.4 mm 5 mps 753 mmHg 90%
12:00 +6°C° 0.4 mm 5 mps 753 mmHg 90%
13:00 +6°C° 0 mm 5 mps 753 mmHg 90%
14:00 +7°C° 0 mm 5 mps 753 mmHg 89%
15:00 +7°C° 0 mm 5 mps 753 mmHg 89%
16:00 +7°C° 0.1 mm 5 mps 753 mmHg 89%
17:00 +7°C° 0.1 mm 4 mps 754 mmHg 89%
18:00 +7°C° 0.1 mm 4 mps 754 mmHg 90%
19:00 +7°C° 0.2 mm 4 mps 754 mmHg 91%
20:00 +7°C° 0.2 mm 4 mps 754 mmHg 91%
21:00 +7°C° 0.2 mm 4 mps 754 mmHg 92%
22:00 +7°C° 0.2 mm 4 mps 754 mmHg 92%
23:00 +7°C° 0.2 mm 4 mps 755 mmHg 93%

2 November, Monday

Time Temperature Precipitation Wind Pressure Humidity
00:00 +7°C° 0.2 mm 4 mps 755 mmHg 93%
01:00 +7°C° 0.1 mm 4 mps 755 mmHg 93%
02:00 +8°C° 0.1 mm 3 mps 755 mmHg 93%
03:00 +8°C° 0.1 mm 3 mps 755 mmHg 92%
04:00 +7°C° 0 mm 3 mps 755 mmHg 93%
05:00 +7°C° 0 mm 3 mps 755 mmHg 93%
06:00 +7°C° 0 mm 3 mps 756 mmHg 93%
07:00 +7°C° 0 mm 3 mps 756 mmHg 92%
08:00 +7°C° 0 mm 3 mps 756 mmHg 91%
09:00 +6°C° 0 mm 4 mps 756 mmHg 90%
10:00 +7°C° 0 mm 4 mps 757 mmHg 86%
11:00 +8°C° 0 mm 4 mps 757 mmHg 82%
12:00 +9°C° 0 mm 3 mps 757 mmHg 78%
13:00 +9°C° 0 mm 3 mps 757 mmHg 76%
14:00 +10°C° 0 mm 3 mps 757 mmHg 75%
15:00 +10°C° 0 mm 3 mps 757 mmHg 74%
16:00 +9°C° 0 mm 3 mps 757 mmHg 78%
17:00 +8°C° 0 mm 3 mps 757 mmHg 82%
18:00 +7°C° 0 mm 3 mps 757 mmHg 87%
19:00 +7°C° 0 mm 3 mps 758 mmHg 88%
20:00 +7°C° 0 mm 3 mps 758 mmHg 88%
21:00 +7°C° 0 mm 3 mps 758 mmHg 89%
22:00 +5°C° 0 mm 3 mps 758 mmHg 90%
23:00 +6°C° 0 mm 2 mps 758 mmHg 90%

3 November, Tuesday

Time Temperature Precipitation Wind Pressure Humidity
00:00 +6°C° 0 mm 2 mps 759 mmHg 91%
01:00 +6°C° 0 mm 2 mps 759 mmHg 91%
02:00 +6°C° 0 mm 2 mps 759 mmHg 91%
03:00 +6°C° 0 mm 2 mps 759 mmHg 91%
04:00 +5°C° 0 mm 2 mps 759 mmHg 91%
05:00 +5°C° 0 mm 2 mps 759 mmHg 91%
06:00 +5°C° 0 mm 2 mps 760 mmHg 91%
07:00 +6°C° 0 mm 2 mps 760 mmHg 89%
08:00 +5°C° 0 mm 3 mps 760 mmHg 86%
09:00 +5°C° 0 mm 3 mps 760 mmHg 83%
10:00 +8°C° 0 mm 3 mps 760 mmHg 78%
11:00 +9°C° 0 mm 3 mps 760 mmHg 73%
12:00 +10°C° 0 mm 3 mps 761 mmHg 68%
13:00 +11°C° 0 mm 3 mps 761 mmHg 67%
14:00 +12°C° 0 mm 2 mps 760 mmHg 67%
15:00 +12°C° 0 mm 2 mps 760 mmHg 66%
16:00 +10°C° 0 mm 2 mps 760 mmHg 71%
17:00 +9°C° 0 mm 2 mps 761 mmHg 76%
18:00 +8°C° 0 mm 2 mps 761 mmHg 81%
19:00 +8°C° 0 mm 2 mps 761 mmHg 81%
20:00 +7°C° 0 mm 3 mps 761 mmHg 81%
21:00 +7°C° 0 mm 3 mps 761 mmHg 82%
22:00 +7°C° 0 mm 3 mps 761 mmHg 82%
23:00 +5°C° 0 mm 3 mps 761 mmHg 82%
Show more